Flag for Brazil Weather past 2 weeks in Itabuna, Bahia, Brazil

Now
81 °F

Scattered clouds.


Feels Like: 85 °F
Forecast: 66 / 79 °F
Wind: 14 mph from Southwest

Location: Salvador Aeroporto

Current Time: May 23, 2015 at 12:55:35 PM

Latest Report: May 23, 2015 at 12:00 PM


Visibility: N/A

Pressure: 30.07 "Hg

Humidity: 74%

Dew point: 72 °F

Location of ItabunaLocation

Historic Weather in Itabuna — Graph

°F

Itabuna temperature yesterday

Maximum temperature yesterday: 82 °F (at 2:00 PM)
Minimum temperature yesterday: 45 °F (at 11:00 AM)
Average temperature yesterday: 75 °F

Past Weeks' High & Low Weather Summary

 TemperatureHumidityPressure
High86 °F (May 8, 12:00 PM)100% (May 8, 11:00 PM)30.09 "Hg (May 8, 11:00 PM)
Low37 °F (May 15, 5:00 AM)55% (May 23, 11:00 AM)29.86 "Hg (May 12, 3:00 PM)
Average77 °F79%30.00 "Hg
* Reported May 8 12:00 Noon — May 23 12:00 Noon, Itabuna, Weather by CustomWeather, © 2015

Note: Actual official high and low records may vary slightly from our data, if they occured in-between our weather recording intervals... More about our weather records

Advertising

Itabuna weather history for previous 24 hours

 ConditionsComfort  
Time TempWeatherWind HumidityBarometerVisibility
12:00 PM
Sat, May 23
81 °FScattered clouds.14 mph74%30.07 "HgN/A
11:00 AM84 °FScattered clouds.12 mph55%30.07 "HgN/A
10:00 AM82 °FScattered clouds.12 mph62%30.09 "HgN/A
9:00 AM81 °FScattered clouds.14 mph70%30.09 "HgN/A
8:00 AM82 °FScattered clouds.10 mph62%30.07 "HgN/A
7:00 AM79 °FScattered clouds.10 mph70%30.04 "HgN/A
6:00 AM77 °FPartly sunny.8 mph79%30.04 "HgN/A
5:00 AM77 °FPassing clouds.10 mph74%30.01 "HgN/A
4:00 AM77 °FPassing clouds.14 mph79%30.01 "HgN/A
3:00 AM79 °FPassing clouds.10 mph74%30.01 "HgN/A
2:00 AM79 °FPassing clouds.10 mph65%30.04 "HgN/A
1:00 AM79 °FPassing clouds.13 mph70%30.07 "HgN/A
12:00 AM77 °FPassing clouds.9 mph79%30.07 "Hg6 mi
11:00 PM
Fri, May 22
79 °FPassing clouds.14 mph74%30.07 "HgN/A
10:00 PM79 °FPassing clouds.14 mph70%30.09 "HgN/A
9:00 PM81 °FPassing clouds.13 mph66%30.09 "HgN/A
8:00 PM81 °FPassing clouds.14 mph66%30.07 "HgN/A
7:00 PM81 °FPassing clouds.14 mph62%30.07 "HgN/A
6:00 PM81 °FPassing clouds.12 mph66%30.07 "HgN/A
5:00 PM81 °FScattered clouds.15 mph66%30.04 "HgN/A
4:00 PM81 °FBroken clouds.14 mph66%30.04 "HgN/A
3:00 PM81 °FBroken clouds.13 mph66%30.04 "HgN/A
2:00 PM82 °FPartly sunny.17 mph62%30.04 "HgN/A
1:00 PM46 °FScattered showers. Broken clouds.15 mph100%30.07 "Hg5 mi
12:00 PM45 °FScattered showers. Broken clouds.12 mph100%30.09 "Hg4 mi
Weather by CustomWeather, © 2015

See weather overviewHow to use our weather pages